Kosmos-763

operational
NORAD ID: 8287 Int'l Des: 1975-086 Owner: GUKOSR Country: SU
LEOCIRCULAR

关于 Kosmos-763

正在加载描述...

实时位置

正在加载3D地球...

即将过境

高度历史

Altitude vs Time

uPlot chart will show altitude changes over time

两行轨道根数

1 8287U 75086C 25278.23524579 -.00000018 00000-0 -14349-4 0 9998
2 8287 74.0100 204.8881 0022160 118.4569 35.7944 12.43559002272065
Epoch: Oct 5, 2025 • Age: 12 hours

当前状态

高度 1527.8 km
速度 7.09 km/s
星下点 -50.19°S, 101.21°W
类型 other

大型星座

Loading constellations...